Showing default

COSMOS 1694, 16142

Orbit data source: Space-Track

COSMOS 1694, 16142 is a payload satellite owned by GUKOS (CIS) in LEO that was launched on Wed, 09 Oct 1985 UTC via a TSIKLON-3 launch vehicle from the Plesetsk Missile And Space Complex (PKMTR). Payload-class satellites include a variety of spacecraft equipped with specific instruments for various scientific and technological missions. These include communications satellites like Starlink; space stations such as the ISS; scientific satellites like the Hubble; Earth observation satellites from companies like Planet Labs, Umbra, and HawkEye 360; GPS; miniature CubeSats for education and research; and military/defense satellites.

Loading next visibility...
Identifier
16142, 1985-094E
Orbit
LEO
Country
Flag of CISCIS
Related business
Manufacturer
NPO PM
Mission
Spacecraft
Bus & Motor
STRELA-3, Unknown motor
Mass
225 kg wet, 225 kg dry
Launch date (UTC)
1985-10-09 (41 years ago)
Launch vehicle
TSIKLON-3
Launch site
Plesetsk Missile And Space Complex (PKMTR)
Object type
Payload
Rocket body
Debris
Shape & HBR
Unknown
Radar Cross Section
Medium (>0.1 m² and <1 m²)

Expand to show TLE details & history
Last TLE update: 2 days ago

TLE from 2 days ago
0 COSMOS 1694
1 16142U 85094E   26171.20603558  .00000024  00000-0  72719-4 0  9992
2 16142  82.6090 260.3212 0012470  63.8389 323.3099 12.63684519877048
Epoch: 2026-06-20T04:56Z
TLE epoch observation values (Epoch: 2026-06-20T04:56:41.474Z)
Latitude
26.85473°
Longitude
-78.52831°
Altitude
1,403.127 km
Speed
7.164 km/s
True Right ascension
17h 36m 16s
True Declination
26° 43' 40"
Sunlit
Object was in full shadow at epoch
Visualization orbit readout
Latitude
Unknown
Longitude
Unknown
Altitude
Unknown
Speed
Unknown
Apparent Right ascension
Unknown
Apparent Declination
Unknown
Sunlit
N/A
Visualization observer readout
Local Sidereal Time
23:18:21
Azimuth
Unknown
Elevation
Unknown
Doppler factor
Unknown
Orbital elements
Apogee altitude
1,414.797 km
Perigee altitude
1,395.385 km
Semi-major axis
7,783.228 km
Eccentricity
0.00125
Inclination
82.609°
RAAN
260.3212°
Arg. of periapsis
63.8389°
True anomaly
323.22441°
Mean anomaly
323.3099°
Eccentric anomaly
323.26717°
Mean motion
3.16085 °/min
Orbital period
113.89 mins
BSTAR
0.000072719
Loading maneuver chart data...
Computing Atmospheric mass density...
Loading historical data...
Loading historical data...
Loading historical data...
Loading historical data...
Loading historical data...
Loading historical data...
Loading historical data...

Documentation

Showing up to 5 results
|